Change the Weather History Date:

Tuesday, January 22, 2013

  Actual Average (KDTW) Record (KDTW)
Temperature  
Mean Temperature 5 °F 25 °F  
Max Temperature 10 °F 32 °F 62 °F (1906)
Min Temperature 0 °F 19 °F -10 °F (1970)
Degree Days  
Heating Degree Days 60 40  
Month to date heating degree days 870  
Since 1 July heating degree days 3167  
Cooling Degree Days 0 0  
Month to date cooling degree days 0  
Year to date cooling degree days 0  
Moisture  
Dew Point -5 °F    
Average Humidity 62    
Maximum Humidity 79    
Minimum Humidity 44    
Precipitation  
Precipitation 0.00 in 0.06 in 1.19 in (1874)
Month to date precipitation 1.43  
Year to date precipitation 1.43  
Snow  
Snow 0.00 in 0.40 in 12.20 in (2005)
Month to date snowfall 9.0  
Since 1 July snowfall 20.2  
Snow Depth -    
Sea Level Pressure  
Sea Level Pressure 30.21 in    
Wind  
Wind Speed 9 mph (West)    
Max Wind Speed 14 mph    
Max Gust Speed 21 mph    
Visibility 9 miles    
Events Snow    
T = Trace of Precipitation, MM = Missing Value Source: NWS Daily Summary

Daily Weather History Graph

Daily Weather History Graph

Search for Another Location

Airport or City:

Trip Planner

Search our weather history database for the weather conditions in past years. The results will help you decide how hot, cold, wet, or windy it might be!

Date:

Astronomy

Jan. 22, 2013 Rise Set
Actual Time 7:54 AM EST 5:34 PM EST
Civil Twilight 7:23 AM EST 6:05 PM EST
Nautical Twilight 6:49 AM EST 6:39 PM EST
Astronomical Twilight 6:16 AM EST 7:12 PM EST
Moon 1:56 PM EST (1/22) 4:15 AM EST (1/22)
Length of Visible Light 10h 41m
Length of Day
9h 40m
Waxing Gibbous, 82% of the Moon is Illuminated
Jan 22
Waxing Gibbous
Jan 26
Full
Feb 3
Last Quarter
Feb 10
New
Feb 17
First Quarter

Hourly Weather History & Observations

Time (EST) Temp. Windchill Dew Point Humidity Pressure Visibility Wind Dir Wind Speed Gust Speed Precip Events Conditions
12:15 AM 6.8 °F -5.9 °F -2.2 °F 67% 30.10 in 10.0 mi WNW 8.1 mph - N/A   Mostly Cloudy
12:34 AM 6.8 °F -10.0 °F -2.2 °F 67% 30.10 in 10.0 mi WNW 13.8 mph 17.3 mph N/A   Scattered Clouds
12:54 AM 6.8 °F -7.8 °F -5.8 °F 56% 30.10 in 10.0 mi WNW 10.4 mph 19.6 mph N/A   Mostly Cloudy
1:15 AM 5.0 °F -6.9 °F -5.8 °F 61% 30.10 in 10.0 mi WNW 6.9 mph 17.3 mph N/A   Scattered Clouds
1:34 AM 5.0 °F -10.8 °F -4.0 °F 66% 30.10 in 10.0 mi WNW 11.5 mph - N/A   Clear
1:54 AM 5.0 °F -9.1 °F -4.0 °F 66% 30.11 in 10.0 mi WNW 9.2 mph - N/A   Clear
2:14 AM 3.2 °F -13.1 °F -4.0 °F 72% 30.12 in 10.0 mi WNW 11.5 mph 17.3 mph N/A   Clear
2:34 AM 3.2 °F -11.3 °F -5.8 °F 66% 30.13 in 10.0 mi WNW 9.2 mph - N/A   Clear
2:55 AM 3.2 °F -9.1 °F -5.8 °F 66% 30.13 in 10.0 mi WNW 6.9 mph - N/A   Clear
3:14 AM 3.2 °F -10.3 °F -5.8 °F 66% 30.13 in 10.0 mi West 8.1 mph - N/A   Clear
3:34 AM 3.2 °F -9.1 °F -4.0 °F 72% 30.14 in 10.0 mi West 6.9 mph - N/A   Clear
3:54 AM 3.2 °F -10.3 °F -5.8 °F 66% 30.14 in 10.0 mi West 8.1 mph - N/A   Clear
4:14 AM 3.2 °F -12.2 °F -7.6 °F 61% 30.14 in 10.0 mi West 10.4 mph - N/A   Clear
4:34 AM 3.2 °F -12.2 °F -9.4 °F 56% 30.15 in 10.0 mi West 10.4 mph - N/A   Clear
4:54 AM 1.4 °F -14.5 °F -9.4 °F 61% 30.16 in 10.0 mi West 10.4 mph - N/A   Clear
5:14 AM 1.4 °F -14.5 °F -9.4 °F 61% 30.17 in 10.0 mi West 10.4 mph - N/A   Clear
5:34 AM 1.4 °F -13.5 °F -9.4 °F 61% 30.17 in 10.0 mi WNW 9.2 mph - N/A   Clear
5:54 AM 1.4 °F -12.5 °F -9.4 °F 61% 30.19 in 10.0 mi West 8.1 mph - N/A   Clear
6:14 AM 1.4 °F -11.3 °F -9.4 °F 61% 30.19 in 10.0 mi West 6.9 mph - N/A   Clear
6:35 AM -0.4 °F -14.7 °F -9.4 °F 66% 30.20 in 10.0 mi West 8.1 mph - N/A   Clear
6:54 AM -0.4 °F -14.7 °F -9.4 °F 66% 30.21 in 10.0 mi West 8.1 mph - N/A   Scattered Clouds
7:14 AM -0.4 °F -14.7 °F -9.4 °F 66% 30.21 in 10.0 mi WNW 8.1 mph - N/A   Mostly Cloudy
7:34 AM -0.4 °F -14.7 °F -11.2 °F 60% 30.22 in 10.0 mi West 8.1 mph - N/A   Scattered Clouds
7:54 AM -0.4 °F -15.7 °F -9.4 °F 66% 30.22 in 10.0 mi West 9.2 mph - N/A   Scattered Clouds
8:14 AM -0.4 °F -14.7 °F -9.4 °F 66% 30.23 in 10.0 mi West 8.1 mph - N/A   Mostly Cloudy
8:34 AM -0.4 °F -16.7 °F -9.4 °F 66% 30.24 in 10.0 mi West 10.4 mph - N/A   Scattered Clouds
8:54 AM -0.4 °F -15.7 °F -9.4 °F 66% 30.25 in 10.0 mi West 9.2 mph - N/A   Clear
9:15 AM 1.4 °F -12.5 °F -9.4 °F 61% 30.25 in 10.0 mi West 8.1 mph - N/A   Scattered Clouds
9:34 AM 1.4 °F -14.5 °F -9.4 °F 61% 30.26 in 10.0 mi West 10.4 mph - N/A   Scattered Clouds
9:54 AM 3.2 °F -10.3 °F -9.4 °F 56% 30.27 in 10.0 mi West 8.1 mph - N/A   Clear
10:15 AM 3.2 °F -11.3 °F -9.4 °F 56% 30.27 in 10.0 mi West 9.2 mph - N/A   Clear
10:34 AM 3.2 °F -11.3 °F -11.2 °F 51% 30.27 in 10.0 mi West 9.2 mph 16.1 mph N/A   Scattered Clouds
10:54 AM 5.0 °F -6.9 °F -11.2 °F 47% 30.27 in 10.0 mi West 6.9 mph - N/A   Scattered Clouds
11:14 AM 6.8 °F -8.6 °F -11.2 °F 44% 30.27 in 10.0 mi WNW 11.5 mph - N/A   Scattered Clouds
11:34 AM 6.8 °F -8.6 °F -11.2 °F 44% 30.27 in 10.0 mi West 11.5 mph - N/A   Scattered Clouds
11:54 AM 6.8 °F -8.6 °F -9.4 °F 48% 30.26 in 10.0 mi West 11.5 mph - N/A   Scattered Clouds
12:14 PM 8.6 °F -5.5 °F -7.6 °F 48% 30.26 in 10.0 mi WNW 10.4 mph 16.1 mph N/A   Clear
12:34 PM 8.6 °F -5.5 °F -9.4 °F 44% 30.25 in 10.0 mi West 10.4 mph 16.1 mph N/A   Scattered Clouds
12:54 PM 8.6 °F -5.5 °F -7.6 °F 48% 30.24 in 10.0 mi West 10.4 mph - N/A   Scattered Clouds
1:14 PM 10.4 °F -3.3 °F -7.6 °F 44% 30.24 in 10.0 mi West 10.4 mph 17.3 mph N/A   Scattered Clouds
1:34 PM 10.4 °F -4.1 °F -5.8 °F 48% 30.23 in 10.0 mi West 11.5 mph 20.7 mph N/A   Scattered Clouds
1:54 PM 8.6 °F -6.3 °F -5.8 °F 52% 30.23 in 10.0 mi West 11.5 mph - N/A   Mostly Cloudy
2:14 PM 8.6 °F -7.7 °F -5.8 °F 52% 30.23 in 10.0 mi West 13.8 mph 17.3 mph N/A   Overcast
2:35 PM 8.6 °F -5.5 °F -5.8 °F 52% 30.23 in 10.0 mi WSW 10.4 mph 17.3 mph N/A   Overcast
2:54 PM 10.4 °F -1.5 °F -2.2 °F 57% 30.24 in 10.0 mi West 8.1 mph 16.1 mph N/A   Overcast
3:14 PM 8.6 °F -7.7 °F -4.0 °F 57% 30.24 in 10.0 mi West 13.8 mph 17.3 mph N/A   Overcast
3:35 PM 8.6 °F -5.5 °F -4.0 °F 57% 30.24 in 10.0 mi West 10.4 mph - N/A   Mostly Cloudy
3:54 PM 8.6 °F -5.5 °F -4.0 °F 57% 30.23 in 10.0 mi West 10.4 mph - N/A   Mostly Cloudy
4:14 PM 10.4 °F -2.4 °F -4.0 °F 52% 30.22 in 10.0 mi West 9.2 mph 16.1 mph N/A   Overcast
4:35 PM 10.4 °F -1.5 °F -2.2 °F 57% 30.22 in 10.0 mi West 8.1 mph - N/A   Overcast
4:54 PM 10.4 °F -1.5 °F -2.2 °F 57% 30.23 in 10.0 mi West 8.1 mph - N/A   Overcast
5:14 PM 8.6 °F -1.3 °F -2.2 °F 62% 30.23 in 10.0 mi West 5.8 mph - N/A   Overcast
5:34 PM 8.6 °F 0.1 °F -2.2 °F 62% 30.23 in 10.0 mi West 4.6 mph - N/A   Mostly Cloudy
5:54 PM 8.6 °F 2.0 °F -0.4 °F 67% 30.24 in 10.0 mi West 3.5 mph - N/A   Mostly Cloudy
6:14 PM 10.4 °F -0.4 °F -0.4 °F 62% 30.24 in 10.0 mi WSW 6.9 mph - N/A   Overcast
6:34 PM 10.4 °F -2.4 °F -0.4 °F 62% 30.25 in 10.0 mi West 9.2 mph - N/A   Overcast
6:54 PM 10.4 °F -1.5 °F -0.4 °F 62% 30.25 in 10.0 mi West 8.1 mph - N/A   Overcast
7:15 PM 10.4 °F -2.4 °F 1.4 °F 67% 30.25 in 10.0 mi West 9.2 mph - N/A   Overcast
7:34 PM 10.4 °F -4.1 °F 3.2 °F 73% 30.25 in 4.0 mi WNW 11.5 mph - N/A Snow Light Snow
7:54 PM 10.4 °F -2.4 °F 3.2 °F 73% 30.25 in 1.2 mi West 9.2 mph - N/A Snow Light Snow
8:14 PM 10.4 °F 2.2 °F 3.2 °F 73% 30.25 in 2.5 mi WNW 4.6 mph - N/A Snow Light Snow
8:34 PM 8.6 °F -1.3 °F 3.2 °F 79% 30.25 in 2.5 mi West 5.8 mph - N/A Snow Light Snow
8:55 PM 8.6 °F -2.6 °F 3.2 °F 79% 30.25 in 7.0 mi West 6.9 mph - N/A Snow Light Snow
9:14 PM 8.6 °F -2.6 °F -0.4 °F 67% 30.25 in 10.0 mi West 6.9 mph - N/A   Overcast
9:34 PM 8.6 °F -3.7 °F -0.4 °F 67% 30.25 in 10.0 mi West 8.1 mph - N/A   Overcast
9:55 PM 8.6 °F -5.5 °F 1.4 °F 73% 30.25 in 10.0 mi WSW 10.4 mph 17.3 mph N/A   Overcast
10:14 PM 8.6 °F -6.3 °F 1.4 °F 73% 30.25 in 5.0 mi West 11.5 mph 17.3 mph N/A Snow Light Snow
10:34 PM 8.6 °F -5.5 °F 1.4 °F 73% 30.25 in 7.0 mi West 10.4 mph 16.1 mph N/A Snow Light Snow
10:54 PM 8.6 °F -3.7 °F 1.4 °F 73% 30.25 in 10.0 mi WSW 8.1 mph - N/A   Overcast
11:14 PM 8.6 °F -5.5 °F -0.4 °F 67% 30.25 in 10.0 mi WSW 10.4 mph - N/A   Overcast
11:34 PM 8.6 °F -5.5 °F -0.4 °F 67% 30.25 in 10.0 mi WSW 10.4 mph - N/A   Overcast
11:54 PM 8.6 °F -6.3 °F -0.4 °F 67% 30.26 in 10.0 mi WSW 11.5 mph - N/A   Overcast